Time,TemperatureF,DewpointF,PressureIn,WindDirection,WindDirectionDegrees,WindSpeedMPH,WindSpeedGustMPH,Humidity,HourlyPrecipIn,Conditions,Clouds,dailyrainin,SoftwareType,DateUTC
2013-04-13 00:03:00,74.0,70.0,29.91,SW,229,0.0,0.0,86,0.00,,,0.00,,2013-04-13 04:03:00,
2013-04-13 00:12:00,74.0,70.0,29.91,SW,229,0.0,0.0,86,0.00,,,0.00,,2013-04-13 04:12:00,
2013-04-13 00:23:00,74.0,70.0,29.92,SW,229,0.0,3.0,87,0.00,,,0.00,,2013-04-13 04:23:00,
2013-04-13 00:33:00,74.0,70.0,29.91,SW,229,0.0,0.0,87,0.00,,,0.00,,2013-04-13 04:33:00,
2013-04-13 00:42:00,74.0,70.0,29.91,SW,229,0.0,0.0,87,0.00,,,0.00,,2013-04-13 04:42:00,
2013-04-13 00:53:00,73.0,69.0,29.91,SW,229,0.0,0.0,87,0.00,,,0.00,,2013-04-13 04:53:00,
2013-04-13 01:02:00,73.0,69.0,29.91,SW,229,0.0,0.0,87,0.00,,,0.00,,2013-04-13 05:02:00,
2013-04-13 01:12:00,73.0,69.0,29.91,SW,229,0.0,0.0,87,0.00,,,0.00,,2013-04-13 05:12:00,
2013-04-13 01:22:00,73.0,69.0,29.93,SW,229,0.0,0.0,88,0.00,,,0.00,,2013-04-13 05:22:00,
2013-04-13 01:32:00,73.0,69.0,29.92,SW,229,0.0,0.0,88,0.00,,,0.00,,2013-04-13 05:32:00,
2013-04-13 01:43:00,73.0,69.0,29.92,SW,229,0.0,0.0,88,0.00,,,0.00,,2013-04-13 05:43:00,
2013-04-13 01:53:00,72.0,68.0,29.92,WSW,240,0.0,4.0,88,0.00,,,0.00,,2013-04-13 05:53:00,
2013-04-13 02:02:00,72.0,68.0,29.91,WSW,240,0.0,0.0,87,0.00,,,0.00,,2013-04-13 06:02:00,
2013-04-13 02:12:00,72.0,68.0,29.91,WSW,240,0.0,0.0,87,0.00,,,0.00,,2013-04-13 06:12:00,
2013-04-13 02:24:00,72.0,68.0,29.91,WSW,240,0.0,0.0,87,0.00,,,0.00,,2013-04-13 06:24:00,
2013-04-13 02:35:00,72.0,68.0,29.91,WSW,240,0.0,0.0,88,0.00,,,0.00,,2013-04-13 06:35:00,
2013-04-13 02:48:00,72.0,68.0,29.91,WSW,240,0.0,0.0,88,0.00,,,0.00,,2013-04-13 06:48:00,
2013-04-13 02:55:00,72.0,68.0,29.91,WSW,240,0.0,0.0,88,0.00,,,0.00,,2013-04-13 06:55:00,
2013-04-13 03:05:00,71.0,67.0,29.90,WSW,240,0.0,0.0,88,0.00,,,0.00,,2013-04-13 07:05:00,
2013-04-13 03:15:00,71.0,67.0,29.90,WSW,240,0.0,0.0,88,0.00,,,0.00,,2013-04-13 07:15:00,
2013-04-13 03:24:00,71.0,68.0,29.90,WSW,240,0.0,0.0,90,0.00,,,0.00,,2013-04-13 07:24:00,
2013-04-13 03:35:00,70.0,67.0,29.91,WSW,240,0.0,0.0,90,0.00,,,0.00,,2013-04-13 07:35:00,
2013-04-13 03:45:00,70.0,67.0,29.91,WSW,240,0.0,0.0,90,0.00,,,0.00,,2013-04-13 07:45:00,
2013-04-13 04:06:00,70.0,67.0,29.90,WSW,240,0.0,0.0,91,0.00,,,0.00,,2013-04-13 08:06:00,
2013-04-13 04:15:00,70.0,67.0,29.90,WSW,240,0.0,0.0,91,0.00,,,0.00,,2013-04-13 08:15:00,
2013-04-13 04:25:00,70.0,67.0,29.89,WSW,240,0.0,0.0,91,0.00,,,0.00,,2013-04-13 08:25:00,
2013-04-13 04:35:00,69.0,66.0,29.91,WSW,240,0.0,0.0,91,0.00,,,0.00,,2013-04-13 08:35:00,
2013-04-13 04:45:00,69.0,66.0,29.91,WSW,240,0.0,0.0,91,0.00,,,0.00,,2013-04-13 08:45:00,
2013-04-13 04:55:00,69.0,66.0,29.91,WSW,240,0.0,0.0,91,0.00,,,0.00,,2013-04-13 08:55:00,
2013-04-13 05:05:00,69.0,67.0,29.91,WSW,241,0.0,0.0,92,0.00,,,0.00,,2013-04-13 09:05:00,
2013-04-13 05:15:00,69.0,67.0,29.91,WSW,241,0.0,0.0,92,0.00,,,0.00,,2013-04-13 09:15:00,
2013-04-13 05:24:00,69.0,67.0,29.91,WSW,240,0.0,0.0,92,0.00,,,0.00,,2013-04-13 09:24:00,
2013-04-13 05:36:00,69.0,66.0,29.91,WSW,240,0.0,0.0,91,0.00,,,0.00,,2013-04-13 09:36:00,
2013-04-13 05:50:00,69.0,66.0,29.91,WSW,240,0.0,0.0,91,0.00,,,0.00,,2013-04-13 09:50:00,
2013-04-13 05:55:00,69.0,66.0,29.91,WSW,240,0.0,0.0,91,0.00,,,0.00,,2013-04-13 09:55:00,
2013-04-13 06:05:00,69.0,66.0,29.91,WSW,240,0.0,0.0,91,0.00,,,0.00,,2013-04-13 10:05:00,
2013-04-13 06:24:00,69.0,66.0,29.90,WSW,241,0.0,0.0,91,0.00,,,0.00,,2013-04-13 10:24:00,
2013-04-13 06:37:00,68.0,65.0,29.91,WSW,240,0.0,0.0,91,0.00,,,0.00,,2013-04-13 10:37:00,
2013-04-13 06:46:00,68.0,65.0,29.91,WSW,240,0.0,0.0,91,0.00,,,0.00,,2013-04-13 10:46:00,
2013-04-13 06:55:00,68.0,65.0,29.91,WSW,240,0.0,0.0,91,0.00,,,0.00,,2013-04-13 10:55:00,
2013-04-13 07:06:00,68.0,66.0,29.91,WSW,240,0.0,0.0,92,0.00,,,0.00,,2013-04-13 11:06:00,
2013-04-13 07:13:00,68.0,66.0,29.91,WSW,240,0.0,0.0,92,0.00,,,0.00,,2013-04-13 11:13:00,
2013-04-13 07:24:00,68.0,66.0,29.92,WSW,240,0.0,0.0,92,0.00,,,0.00,,2013-04-13 11:24:00,
2013-04-13 07:34:00,68.0,66.0,29.93,WSW,240,0.0,0.0,92,0.00,,,0.00,,2013-04-13 11:34:00,
2013-04-13 07:45:00,68.0,66.0,29.93,WSW,240,0.0,0.0,92,0.00,,,0.00,,2013-04-13 11:45:00,
2013-04-13 07:54:00,68.0,66.0,29.93,WSW,240,0.0,0.0,92,0.00,,,0.00,,2013-04-13 11:54:00,
2013-04-13 08:08:00,68.0,66.0,29.94,WSW,240,0.0,0.0,93,0.00,,,0.00,,2013-04-13 12:08:00,
2013-04-13 08:15:00,68.0,66.0,29.94,WSW,240,0.0,0.0,93,0.00,,,0.00,,2013-04-13 12:15:00,
2013-04-13 08:25:00,68.0,66.0,29.95,WSW,240,0.0,0.0,93,0.00,,,0.00,,2013-04-13 12:25:00,
2013-04-13 08:35:00,69.0,67.0,29.96,WSW,240,0.0,0.0,93,0.00,,,0.00,,2013-04-13 12:35:00,
2013-04-13 08:47:00,69.0,67.0,29.96,WSW,240,0.0,0.0,93,0.00,,,0.00,,2013-04-13 12:47:00,
2013-04-13 08:55:00,69.0,67.0,29.97,WSW,240,0.0,0.0,92,0.00,,,0.00,,2013-04-13 12:55:00,
2013-04-13 09:06:00,70.0,67.0,29.97,WSW,240,0.0,0.0,91,0.00,,,0.00,,2013-04-13 13:06:00,
2013-04-13 09:15:00,70.0,67.0,29.97,WSW,240,0.0,0.0,91,0.00,,,0.00,,2013-04-13 13:15:00,
2013-04-13 09:30:00,71.0,68.0,29.98,WSW,240,0.0,1.0,89,0.00,,,0.00,,2013-04-13 13:30:00,
2013-04-13 09:35:00,72.0,68.0,29.98,WSW,241,0.0,4.0,86,0.00,,,0.00,,2013-04-13 13:35:00,
2013-04-13 09:48:00,72.0,68.0,29.98,WSW,241,0.0,4.0,86,0.00,,,0.00,,2013-04-13 13:48:00,
2013-04-13 09:57:00,73.0,68.0,29.98,WSW,241,0.0,0.0,84,0.00,,,0.00,,2013-04-13 13:57:00,
2013-04-13 10:05:00,73.0,67.0,29.99,WSW,255,3.0,5.0,82,0.00,,,0.00,,2013-04-13 14:05:00,
2013-04-13 10:15:00,73.0,67.0,29.99,WSW,255,3.0,5.0,82,0.00,,,0.00,,2013-04-13 14:15:00,
2013-04-13 10:24:00,74.0,68.0,29.99,WNW,295,0.0,4.0,81,0.00,,,0.00,,2013-04-13 14:24:00,
2013-04-13 10:38:00,75.0,68.0,29.99,NW,313,1.0,5.0,79,0.00,,,0.00,,2013-04-13 14:38:00,
2013-04-13 10:46:00,75.0,68.0,29.99,NW,313,1.0,5.0,79,0.00,,,0.00,,2013-04-13 14:46:00,
2013-04-13 11:00:00,76.0,68.0,30.00,North,350,0.0,2.0,76,0.00,,,0.00,,2013-04-13 15:00:00,
2013-04-13 11:05:00,77.0,68.0,30.00,West,278,0.0,4.0,75,0.00,,,0.00,,2013-04-13 15:05:00,
2013-04-13 11:14:00,77.0,68.0,30.00,West,278,0.0,4.0,75,0.00,,,0.00,,2013-04-13 15:14:00,
2013-04-13 11:29:00,77.0,68.0,30.00,NNW,345,0.0,3.0,73,0.00,,,0.00,,2013-04-13 15:29:00,
2013-04-13 11:44:00,77.0,67.0,30.00,NE,36,0.0,4.0,72,0.00,,,0.00,,2013-04-13 15:44:00,
2013-04-13 11:58:00,79.0,68.0,30.00,NE,36,0.0,3.0,68,0.00,,,0.00,,2013-04-13 15:58:00,
2013-04-13 12:07:00,80.0,69.0,29.99,NE,34,0.0,3.0,69,0.00,,,0.00,,2013-04-13 16:07:00,
2013-04-13 12:15:00,80.0,69.0,29.99,NE,34,0.0,3.0,69,0.00,,,0.00,,2013-04-13 16:15:00,
2013-04-13 12:25:00,81.0,69.0,29.99,NNW,348,0.0,4.0,67,0.00,,,0.00,,2013-04-13 16:25:00,
2013-04-13 12:36:00,83.0,68.0,29.99,North,355,1.0,4.0,60,0.00,,,0.00,,2013-04-13 16:36:00,
2013-04-13 12:46:00,83.0,68.0,29.99,North,355,1.0,4.0,60,0.00,,,0.00,,2013-04-13 16:46:00,
2013-04-13 12:57:00,82.0,68.0,29.98,NW,304,0.0,2.0,63,0.00,,,0.00,,2013-04-13 16:57:00,
2013-04-13 13:07:00,84.0,69.0,29.97,WNW,289,1.0,5.0,60,0.00,,,0.00,,2013-04-13 17:07:00,
2013-04-13 13:21:00,84.0,69.0,29.97,WNW,289,1.0,5.0,60,0.00,,,0.00,,2013-04-13 17:21:00,
2013-04-13 13:37:00,84.0,68.0,29.97,NE,40,1.0,4.0,58,0.00,,,0.00,,2013-04-13 17:37:00,
2013-04-13 13:44:00,84.0,68.0,29.97,NE,40,1.0,4.0,58,0.00,,,0.00,,2013-04-13 17:44:00,
2013-04-13 14:04:00,84.0,67.0,29.96,NE,42,0.0,1.0,57,0.00,,,0.00,,2013-04-13 18:04:00,
2013-04-13 14:15:00,84.0,67.0,29.96,West,270,0.0,5.0,57,0.00,,,0.00,,2013-04-13 18:15:00,
2013-04-13 14:24:00,85.0,68.0,29.96,NNE,23,1.0,6.0,56,0.00,,,0.00,,2013-04-13 18:24:00,
2013-04-13 14:33:00,84.0,67.0,29.95,NNE,24,1.0,2.0,56,0.00,,,0.00,,2013-04-13 18:33:00,
2013-04-13 14:42:00,84.0,67.0,29.95,NNE,24,1.0,2.0,56,0.00,,,0.00,,2013-04-13 18:42:00,
2013-04-13 14:53:00,84.0,68.0,29.95,NNE,24,1.0,2.0,59,0.00,,,0.00,,2013-04-13 18:53:00,
2013-04-13 15:03:00,84.0,68.0,29.94,NNE,20,0.0,3.0,59,0.00,,,0.00,,2013-04-13 19:03:00,
2013-04-13 15:12:00,84.0,68.0,29.94,NNE,20,0.0,3.0,59,0.00,,,0.00,,2013-04-13 19:12:00,
2013-04-13 15:22:00,85.0,68.0,29.93,NNE,21,1.0,5.0,56,0.00,,,0.00,,2013-04-13 19:22:00,
2013-04-13 15:32:00,87.0,68.0,29.93,NNE,17,0.0,3.0,54,0.00,,,0.00,,2013-04-13 19:32:00,
2013-04-13 15:42:00,87.0,68.0,29.93,NNE,17,0.0,3.0,54,0.00,,,0.00,,2013-04-13 19:42:00,
2013-04-13 15:53:00,88.0,68.0,29.91,NNW,340,0.0,5.0,51,0.00,,,0.00,,2013-04-13 19:53:00,
2013-04-13 16:02:00,88.0,66.0,29.91,West,280,0.0,5.0,49,0.00,,,0.00,,2013-04-13 20:02:00,
2013-04-13 16:12:00,88.0,66.0,29.91,West,280,0.0,5.0,49,0.00,,,0.00,,2013-04-13 20:12:00,
2013-04-13 16:22:00,88.0,63.0,29.91,WNW,284,1.0,9.0,43,0.00,,,0.00,,2013-04-13 20:22:00,
2013-04-13 16:32:00,87.0,63.0,29.91,West,281,2.0,6.0,45,0.00,,,0.00,,2013-04-13 20:32:00,
2013-04-13 16:42:00,87.0,63.0,29.91,West,281,2.0,6.0,45,0.00,,,0.00,,2013-04-13 20:42:00,
2013-04-13 16:52:00,87.0,64.0,29.91,West,270,0.0,4.0,46,0.00,,,0.00,,2013-04-13 20:52:00,
2013-04-13 17:02:00,88.0,64.0,29.90,West,270,0.0,1.0,45,0.00,,,0.00,,2013-04-13 21:02:00,
2013-04-13 17:12:00,88.0,64.0,29.90,West,270,0.0,1.0,45,0.00,,,0.00,,2013-04-13 21:12:00,
2013-04-13 17:22:00,86.0,63.0,29.91,NW,305,1.0,5.0,47,0.00,,,0.00,,2013-04-13 21:22:00,
2013-04-13 17:33:00,86.0,64.0,29.91,WNW,298,3.0,7.0,48,0.00,,,0.00,,2013-04-13 21:33:00,
2013-04-13 17:43:00,86.0,64.0,29.91,WNW,298,3.0,7.0,48,0.00,,,0.00,,2013-04-13 21:43:00,
2013-04-13 17:53:00,86.0,63.0,29.91,WNW,289,1.0,6.0,46,0.00,,,0.00,,2013-04-13 21:53:00,
2013-04-13 18:03:00,85.0,62.0,29.91,WNW,288,1.0,6.0,46,0.00,,,0.00,,2013-04-13 22:03:00,
2013-04-13 18:13:00,85.0,62.0,29.91,WNW,288,1.0,6.0,46,0.00,,,0.00,,2013-04-13 22:13:00,
2013-04-13 18:22:00,85.0,63.0,29.91,WNW,288,0.0,1.0,48,0.00,,,0.00,,2013-04-13 22:22:00,
2013-04-13 18:33:00,84.0,64.0,29.92,East,96,1.0,6.0,52,0.00,,,0.00,,2013-04-13 22:33:00,
2013-04-13 18:42:00,84.0,64.0,29.92,East,96,1.0,6.0,52,0.00,,,0.00,,2013-04-13 22:42:00,
2013-04-13 18:53:00,82.0,63.0,29.92,ENE,63,2.0,7.0,52,0.00,,,0.00,,2013-04-13 22:53:00,
2013-04-13 19:02:00,80.0,62.0,29.92,East,90,1.0,5.0,54,0.00,,,0.00,,2013-04-13 23:02:00,
2013-04-13 19:12:00,80.0,62.0,29.93,ESE,102,1.0,6.0,55,0.00,,,0.00,,2013-04-13 23:12:00,
2013-04-13 19:22:00,80.0,62.0,29.93,ESE,102,1.0,6.0,55,0.00,,,0.00,,2013-04-13 23:22:00,
2013-04-13 19:32:00,79.0,62.0,29.93,ESE,102,1.0,6.0,56,0.00,,,0.00,,2013-04-13 23:32:00,
2013-04-13 19:42:00,79.0,62.0,29.93,ESE,102,1.0,6.0,56,0.00,,,0.00,,2013-04-13 23:42:00,
2013-04-13 19:53:00,78.0,62.0,29.93,NE,49,2.0,5.0,57,0.00,,,0.00,,2013-04-13 23:53:00,
2013-04-13 20:03:00,77.0,61.0,29.93,ENE,74,2.0,5.0,58,0.00,,,0.00,,2013-04-14 00:03:00,
2013-04-13 20:12:00,77.0,61.0,29.93,ENE,74,2.0,5.0,58,0.00,,,0.00,,2013-04-14 00:12:00,
2013-04-13 20:22:00,76.0,61.0,29.94,NE,42,1.0,9.0,59,0.00,,,0.00,,2013-04-14 00:22:00,
2013-04-13 20:32:00,75.0,61.0,29.94,NE,39,3.0,7.0,61,0.00,,,0.00,,2013-04-14 00:32:00,
2013-04-13 20:42:00,75.0,61.0,29.94,NE,39,3.0,7.0,61,0.00,,,0.00,,2013-04-14 00:42:00,
2013-04-13 20:52:00,74.0,59.0,29.94,ENE,78,3.0,10.0,60,0.00,,,0.00,,2013-04-14 00:52:00,
2013-04-13 21:02:00,73.0,58.0,29.94,NNE,27,3.0,7.0,60,0.00,,,0.00,,2013-04-14 01:02:00,
2013-04-13 21:12:00,73.0,58.0,29.94,NNE,27,3.0,7.0,60,0.00,,,0.00,,2013-04-14 01:12:00,
2013-04-13 21:22:00,72.0,57.0,29.97,ESE,121,2.0,9.0,60,0.00,,,0.00,,2013-04-14 01:22:00,
2013-04-13 21:32:00,71.0,56.0,29.97,East,94,4.0,10.0,60,0.00,,,0.00,,2013-04-14 01:32:00,
2013-04-13 21:42:00,71.0,56.0,29.97,East,94,4.0,10.0,60,0.00,,,0.00,,2013-04-14 01:42:00,
2013-04-13 21:53:00,70.0,56.0,29.97,ESE,103,3.0,6.0,61,0.00,,,0.00,,2013-04-14 01:53:00,
2013-04-13 22:02:00,70.0,58.0,29.98,ESE,102,4.0,7.0,65,0.00,,,0.00,,2013-04-14 02:02:00,
2013-04-13 22:12:00,69.0,58.0,29.99,East,93,2.0,4.0,67,0.00,,,0.00,,2013-04-14 02:12:00,
2013-04-13 22:22:00,69.0,58.0,29.99,East,93,2.0,4.0,67,0.00,,,0.00,,2013-04-14 02:22:00,
2013-04-13 22:32:00,69.0,58.0,30.00,East,93,2.0,4.0,68,0.00,,,0.00,,2013-04-14 02:32:00,
2013-04-13 22:42:00,69.0,58.0,30.00,East,93,2.0,4.0,68,0.00,,,0.00,,2013-04-14 02:42:00,
2013-04-13 22:53:00,69.0,58.0,30.00,East,92,0.0,3.0,69,0.00,,,0.00,,2013-04-14 02:53:00,
2013-04-13 23:03:00,68.0,58.0,30.01,East,92,1.0,4.0,71,0.00,,,0.00,,2013-04-14 03:03:00,
2013-04-13 23:12:00,68.0,58.0,30.01,East,92,1.0,4.0,71,0.00,,,0.00,,2013-04-14 03:12:00,
2013-04-13 23:22:00,68.0,59.0,30.01,East,92,0.0,2.0,72,0.00,,,0.00,,2013-04-14 03:22:00,
2013-04-13 23:33:00,68.0,59.0,30.01,East,92,0.0,1.0,73,0.00,,,0.00,,2013-04-14 03:33:00,
2013-04-13 23:42:00,68.0,59.0,30.01,East,92,0.0,1.0,73,0.00,,,0.00,,2013-04-14 03:42:00,
2013-04-13 23:53:00,68.0,59.0,30.01,East,92,0.0,0.0,74,0.00,,,0.00,,2013-04-14 03:53:00,